This demonstration page uses our WeatherBlox Daily Observations layout. Learn more.

Left ArrowRight Arrow

34.02893, -84.19858

Hourly Observations for August 16, 2020

Temp ( °F °C ) Dew Point ( °F °C ) Humidity (%) Winds ( mph kmh ) Pressure ( in mb ) Visibility ( mi km ) Precip ( " mm )
12:53 am 00:53 Clear 73 22.8 71 21.7 94 94 WNW 5 7 29.86 1011 10 16 0.00 0.00
1:53 am 01:53 Clear 73 22.8 71 21.7 94 94 NW 7 11 29.86 1011 10 16 0.00 0.00
2:53 am 02:53 Clear 73 22.8 71 21.7 94 94 WNW 5 7 29.88 1012 10 16 0.00 0.00
3:53 am 03:53 Clear with Mist and Fog 71 21.7 71 21.7 100 100 Calm 29.87 1012 6 10 0.00 0.00
4:53 am 04:53 Clear 71 21.7 70 21.1 96 96 Calm 29.86 1011 8 13 0.00 0.00
5:53 am 05:53 Clear 71 21.7 70 21.1 96 96 Calm 29.86 1011 9 14 0.00 0.00
6:53 am 06:53 Clear 70 21.1 69 20.6 97 97 NW 3 6 29.88 1012 9 14 0.00 0.00
7:53 am 07:53 Sunny 72 22.2 70 21.1 94 94 NNW 5 7 29.91 1013 9 14 0.00 0.00
8:53 am 08:53 Sunny 75 23.9 70 21.1 84 84 NNW 8 13 29.93 1013 10 16 0.00 0.00
9:53 am 09:53 Sunny 78 25.6 71 21.7 79 79 NNW 8 13 29.93 1014 10 16 0.00 0.00
10:53 am 10:53 Sunny 81 27.2 70 21.1 69 69 N 8 13 29.93 1014 10 16 0.00 0.00
11:53 am 11:53 Sunny 84 28.9 69 20.6 61 61 NNW 10 17 29.93 1014 10 16 0.00 0.00
12:53 pm 12:53 Sunny 85 29.4 69 20.6 59 59 NW 7 11 29.92 1013 10 16 0.00 0.00
1:53 pm 13:53 Partly Cloudy 86 30 68 20 55 55 NW 8 13 29.92 1013 10 16 0.00 0.00
2:53 pm 14:53 Mostly Sunny 88 31.1 67 19.4 50 50 NNW 6 9 29.90 1012 10 16 0.00 0.00
3:53 pm 15:53 Mostly Sunny 89 31.7 67 19.4 48 48 VRB 6 9 29.89 1012 10 16 0.00 0.00
4:53 pm 16:53 Partly Cloudy 88 31.1 67 19.4 50 50 N 9 15 29.88 1012 10 16 0.00 0.00
5:53 pm 17:53 Mostly Sunny 89 31.7 67 19.4 48 48 NNW 9 15 29.88 1012 10 16 0.00 0.00
6:53 pm 18:53 Sunny 87 30.6 67 19.4 51 51 NNW 8 13 29.88 1012 10 16 0.00 0.00
7:53 pm 19:53 Sunny 84 28.9 67 19.4 57 57 N 6 9 29.88 1012 10 16 0.00 0.00
8:53 pm 20:53 Clear 78 25.6 69 20.6 74 74 NNW 3 6 29.90 1013 10 16 0.00 0.00
9:53 pm 21:53 Clear 75 23.9 71 21.7 88 88 Calm 29.92 1013 10 16 0.00 0.00
10:53 pm 22:53 Clear 74 23.3 70 21.1 88 88 Calm 29.92 1013 10 16 0.00 0.00
11:53 pm 23:53 Clear 73 22.8 71 21.7 94 94 Calm 29.92 1013 10 16 0.00 0.00

Powered by AerisWeather